Regional Weather Roundup
Issued by NWS

Home | Current Version | Previous Version | Text Only | Print | Product List | Glossary On
Versions: 1 2 3 4 5 6 7 8 9 10 11 12 13 14 15 16 17 18 19 20 21 22 23 24 25 26 27 28 29 30 31 32 33 34 35 36 37 38 39 40 41 42 43 44 45 46 47 48 49 50
000
ASUS44 KFWD 310515
RWRTX
NORTH TEXAS HOURLY WEATHER ROUNDUP
NATIONAL WEATHER SERVICE FORT WORTH TX
1100 PM CST FRI JAN 30 2015

NOTE: "FAIR" INDICATES FEW OR NO CLOUDS BELOW 12,000 FEET WITH NO
SIGNIFICANT WEATHER AND/OR OBSTRUCTIONS TO VISIBILITY.

TXZ118-119-310600-
DALLAS/FORT WORTH METROPLEX

CITY           SKY/WX    TMP DP  RH WIND       PRES   REMARKS
DFW AIRPORT    CLOUDY    51  29  42 SE10      30.30F
DALLAS LOVE    CLOUDY    52  29  41 SE10      30.31F
FTW MEACHAM    CLOUDY    52  30  43 E8        30.30F
DAL-EXECUTIVE  CLOUDY    52  30  43 E9        30.30S
FTW-ALLIANCE   CLOUDY    49  29  46 E6        30.30F
FTW-SPINKS     CLOUDY    50  31  47 E5        30.32S
ARLINGTON      CLOUDY    52  28  39 E9        30.30F
GRAND PRAIRIE  CLOUDY    51  32  47 E7        30.33S
ADDISON        CLOUDY    52  30  42 E9        30.32F
MESQUITE       CLOUDY    49  30  47 E8        30.32F
LANCASTER      CLOUDY    48  31  52 E3        30.32F
$$

TXZ091>094-102>105-117-120-121-131>134-310600-
NORTH CENTRAL TEXAS

CITY           SKY/WX    TMP DP  RH WIND       PRES   REMARKS
SHRMAN/DENISON CLOUDY    49  33  54 E8        30.33F
GAINESVILLE    MOCLDY    48  31  53 E6        30.33S
BOWIE          CLOUDY    47  32  55 SE5       30.30S
BRIDGEPORT     MOCLDY    47  36  63 CALM      30.32F
DECATUR        CLOUDY    48  31  52 E6        30.30S
DENTON         CLOUDY    50  30  46 E8        30.30F
MCKINNEY       CLOUDY    49  30  48 E7        30.31F
GREENVILLE     CLOUDY    46  30  53 E3        30.33F
ROCKWALL       CLOUDY    49  32  52 E7        30.31S
TERRELL        CLOUDY    51  31  46 E7        30.32F
WAXAHACHIE     CLOUDY    49  33  54 E7        30.32S
CLEBURNE       MOCLDY    48  32  53 E6        30.31F
GRANBURY       MOCLDY    47  36  63 CALM      30.31F
$$

TXZ083>090-098>101-113>116-127>130-139>142-154-155-310600-
WESTERN NORTH TEXAS

CITY           SKY/WX    TMP DP  RH WIND       PRES   REMARKS
WICHITA FALLS  CLOUDY    45  33  63 SE8       30.28F
WF-KICKAPOO    MOCLDY    47  35  61 E7        30.30F
VERNON         MOCLDY    44  28  53 E9        30.27F WCI  39
ABILENE        CLOUDY    46  33  60 SE8       30.24F
ABILENE-DYESS  CLOUDY    47  34  60 SE13      30.23F
BRECKENRIDGE   CLOUDY    49  34  56 E7        30.26F
GRAHAM         CLOUDY    47  34  59 CALM      30.28F
MINERAL WELLS  PTCLDY    47  33  58 SE3       30.28F
STEPHENVILLE   CLOUDY    48  34  57 SE3       30.30F
COMANCHE       CLOUDY    46  37  70 SE3       30.28F
BROWNWOOD      CLOUDY    46  34  61 E7        30.27F
COLEMAN        CLOUDY    46  36  66 SE10      30.26S
BRADY          MOCLDY    46  36  66 E7        30.24S
$$

TXZ143>147-156>162-174-175-310600-
CENTRAL TEXAS

CITY           SKY/WX    TMP DP  RH WIND       PRES   REMARKS
WACO           CLOUDY    47  38  71 E3        30.30F
WACO-MCGREGOR  CLOUDY    46  34  61 CALM      30.31F
HILLSBORO      CLOUDY    51  31  47 E7        30.30F
CORSICANA      CLOUDY    51  32  48 E8        30.32F
MEXIA          CLOUDY    49  34  55 E3        30.30S
HEARNE         MOCLDY    49  34  55 E6        30.32S
CAMERON        MOCLDY    49  37  62 E3        30.30F
TEMPLE         CLOUDY    50  30  46 E10       30.28F
KILLEEN        CLOUDY    49  35  56 E5        30.28F
KILLEEN-SKYLRK CLOUDY    48  34  57 E6        30.26F
FORT HOOD      CLOUDY    49  34  55 E7        30.27F
GATESVILLE     MOCLDY    45  37  76 CALM      30.31F
HAMILTON       CLOUDY    47  35  61 SE3       30.29F
LAMPASAS       CLOUDY    47  39  74 NE3       30.27F
$$

TXZ095>097-106>112-122>126-135>138-148>153-164>167-310600-
EAST TEXAS

CITY           SKY/WX    TMP DP  RH WIND       PRES   REMARKS
PARIS          CLOUDY    46  28  49 E9        30.36F
SULPHUR SPRNGS CLOUDY    47  31  55 E6        30.37S
MOUNT PLEASANT CLOUDY    46  31  55 E7        30.37F
GILMER         CLOUDY    46  32  57 E5        30.35F
MINEOLA        CLOUDY    48  30  49 CALM      30.35F
TYLER          CLOUDY    50  30  46 E7        30.33F
LONGVIEW       CLOUDY    48  32  53 E8        30.34F
MARSHALL       CLOUDY    49  33  52 E5        30.38F
ATHENS         CLOUDY    48  32  53 E5        30.32F
PALESTINE      CLOUDY    50  32  49 E6        30.34S
JACKSONVILLE   CLOUDY    48  32  54 MISG      30.34F
HENDERSON      CLOUDY    48  32  52 E6        30.35S
NACOGDOCHES    CLOUDY    48  30  49 E6        30.34F
LUFKIN         CLOUDY    48  37  65 E5        30.33F
$$

SUPPLEMENTAL OBSERVATIONS (CENTRAL)

CITY           SKY/WX    TMP DP  RH WIND       PRES   REMARKS
LAKE TEXOMA      N/A     48  30  49 E6          N/A
CADDO GRASSLND   N/A     48  30  49 SE3         N/A
PAT MAYSE LAKE   N/A     48  30  49 E6          N/A
ATHENS           N/A     50  32  50 E7          N/A
PALESTINE        N/A     48  32  53 E5          N/A
LAKE LIMESTONE   N/A     48  32  53 SE3         N/A
MCGREGOR         N/A     48  36  61 E3          N/A
TEMPLE           N/A     50  32  50 E9          N/A
$$

SUPPLEMENTAL OBSERVATIONS (WEST)

CITY           SKY/WX    TMP DP  RH WIND       PRES   REMARKS
POSSUM KINGDOM   N/A     46  32  57 E3          N/A
LBJ GRASSLAND    N/A     48  32  53 E1G13       N/A
GRANBURY         N/A     46  34  61 S2          N/A
COMANCHE         N/A     46  34  61 E5          N/A
HAMBY            N/A     46  32  57 SE8         N/A
IVIE RESERVOIR   N/A     46  32  57 E12         N/A
COLORADO BEND    N/A     45  34  65 E6          N/A
$$

SUPPLEMENTAL OBSERVATIONS (EAST)

CITY           SKY/WX    TMP DP  RH WIND       PRES   REMARKS
CLARKSVILLE      N/A     46  32  57 E6          N/A
TEXARKANA        N/A     45  30  57 E3          N/A
LINDEN           N/A     45  30  57 E3          N/A
CADDO LAKE       N/A     45  32  61 E3          N/A
GILMER           N/A     46  32  57 E5          N/A
HENDERSON        N/A     48  30  49 E7          N/A
LUFKIN           N/A     48  34  57 MISG        N/A
N SABINE NF      N/A     45  36  70 MISG        N/A
S SABINE NF      N/A     46  34  61 NE3         N/A
$$

SUPPLEMENTAL OBSERVATIONS ARE A COLLECTION OF AUTOMATED INSTRUMENTS
THAT ARE MAINTAINED BY A VARIETY OF FEDERAL AND STATE AGENCIES.
CERTAIN ELEMENTS...SUCH AS HUMIDITY VALUES AND SUSTAINED WIND
SPEEDS...MAY BE APPROXIMATED.




USA.gov is the U.S. government's official web portal to all federal, state and local government web resources and services.